Syracuse, NY

4:13 PM EST on November 14, 2019 (GMT -0500)
Syracuse Hancock International

Weather History for KSYR - September, 2019

Change the Weather History Date:

Monday, September 23, 2019

  Actual Average Record
Temperature  
Mean Temperature 70 °F 59 °F  
Max Temperature 78 °F 69 °F 91 °F (1936)
Min Temperature 61 °F 49 °F 31 °F (1947)
Degree Days  
Heating Degree Days 0 7  
Month to date heating degree days 43 84  
Since 1 July heating degree days 48 110  
Cooling Degree Days 4 1  
Month to date cooling degree days 36 48  
Year to date cooling degree days 604 561  
Growing Degree Days 20 (Base 50)    
Moisture  
Dew Point 63 °F    
Average Humidity 73    
Maximum Humidity 100    
Minimum Humidity 54    
Precipitation  
Precipitation 0.94 in 0.14 in 1.96 in (1982)
Month to date precipitation 2.98 2.81  
Year to date precipitation 33.62 27.40  
Snow  
Snow 0.00 in 0.00 in 0.00 in (2002)
Month to date snowfall 0.0 0.0  
Since 1 July snowfall T 0.0  
Since 1 September snowfall 0.0 0.0  
Snow Depth 0.00 in    
Sea Level Pressure  
Sea Level Pressure 29.76 in    
Wind  
Wind Speed 9 mph ()    
Max Wind Speed 28 mph    
Max Gust Speed 36 mph    
Visibility 9.2 miles    
Events Rain , Thunderstorm    
T = Trace of Precipitation, MM = Missing Value Source: Averaged Metar Reports

Daily Weather History Graph

Daily Weather History Graph

Search for Another Location

Airport or City:

Astronomy

Sep. 23, 2019 Rise Set
Actual Time 6:52 AM EDT 7:00 PM EDT
Civil Twilight 6:24 AM EDT 7:28 PM EDT
Nautical Twilight 5:50 AM EDT 8:01 PM EDT
Astronomical Twilight 5:16 AM EDT 8:35 PM EDT
Moon 12:23 AM EDT (9/23) 4:01 PM EDT (9/23)
Length of Visible Light 13h 04m
Length of Day
12h 07m
Waning Crescent, 33% of the Moon is Illuminated
Sep 23
Waning Crescent
Sep 28
New
Oct 5
First Quarter
Oct 13
Full
Oct 21
Last Quarter

Hourly Weather History & Observations

Time (EDT) Temp. Dew Point Humidity Pressure Visibility Wind Dir Wind Speed Gust Speed Precip Events Conditions
12:54 AM 75.9 °F 64.0 °F 67% 29.86 in 10.0 mi South 6.9 mph - N/A   Mostly Cloudy
1:54 AM 77.0 °F 63.0 °F 62% 29.85 in 10.0 mi South 10.4 mph - N/A   Mostly Cloudy
2:54 AM 77.0 °F 63.0 °F 62% 29.83 in 10.0 mi SW 8.1 mph - N/A   Overcast
3:54 AM 77.0 °F 62.1 °F 60% 29.81 in 10.0 mi SW 6.9 mph - N/A   Overcast
4:54 AM 75.0 °F 62.1 °F 64% 29.80 in 10.0 mi SSW 5.8 mph - N/A   Mostly Cloudy
5:54 AM 77.0 °F 61.0 °F 58% 29.78 in 10.0 mi SSW 8.1 mph - N/A   Mostly Cloudy
6:54 AM 75.9 °F 60.1 °F 58% 29.78 in 10.0 mi WSW 9.2 mph - N/A   Overcast
7:54 AM 77.0 °F 59.0 °F 54% 29.77 in 10.0 mi SSW 12.7 mph - N/A   Mostly Cloudy
8:54 AM 77.0 °F 59.0 °F 54% 29.77 in 10.0 mi SSW 16.1 mph 23.0 mph 0.00 in   Mostly Cloudy
9:54 AM 78.1 °F 60.1 °F 54% 29.78 in 10.0 mi SW 15.0 mph - 0.00 in Rain Light Rain
10:54 AM 78.1 °F 60.1 °F 54% 29.77 in 10.0 mi SW 16.1 mph 21.9 mph 0.00 in   Overcast
11:54 AM 77.0 °F 61.0 °F 58% 29.76 in 10.0 mi WSW 9.2 mph - N/A   Overcast
12:54 PM 78.1 °F 62.1 °F 58% 29.75 in 10.0 mi WSW 11.5 mph - N/A   Overcast
1:54 PM 77.0 °F 63.0 °F 62% 29.73 in 10.0 mi SW 9.2 mph - N/A   Overcast
2:54 PM 77.0 °F 64.0 °F 64% 29.70 in 10.0 mi SW 5.8 mph - N/A   Overcast
3:54 PM 75.9 °F 63.0 °F 64% 29.67 in 10.0 mi NW 6.9 mph - N/A   Overcast
4:24 PM 70.0 °F 66.9 °F 90% 29.69 in 2.0 mi NW 25.3 mph 35.7 mph 0.00 in Rain , Thunderstorm Heavy Thunderstorms and Rain
4:44 PM 68.0 °F 66.9 °F 96% 29.72 in 2.0 mi West 15.0 mph - 0.69 in Rain , Thunderstorm Heavy Thunderstorms and Rain
4:54 PM 68.0 °F 66.0 °F 93% 29.71 in 4.0 mi West 16.1 mph - 0.78 in Rain Light Rain
5:41 PM 66.9 °F 66.0 °F 97% 29.72 in 10.0 mi West 6.9 mph - 0.12 in Rain Light Rain
5:54 PM 66.9 °F 66.0 °F 97% 29.71 in 10.0 mi WSW 9.2 mph - 0.12 in Rain Light Rain
6:54 PM 68.0 °F 66.0 °F 93% 29.74 in 10.0 mi WSW 8.1 mph - 0.00 in   Overcast
7:54 PM 66.9 °F 66.0 °F 97% 29.75 in 10.0 mi WSW 8.1 mph - N/A   Overcast
8:54 PM 66.0 °F 63.0 °F 90% 29.76 in 10.0 mi West 8.1 mph - N/A   Overcast
9:54 PM 64.0 °F 60.1 °F 87% 29.77 in 10.0 mi SW 8.1 mph - 0.04 in Rain Light Rain
10:54 PM 62.1 °F 59.0 °F 90% 29.77 in 10.0 mi SW 6.9 mph - 0.00 in   Scattered Clouds
11:54 PM 62.1 °F 57.9 °F 86% 29.77 in 10.0 mi WSW 11.5 mph - N/A   Scattered Clouds